Regional Weather Roundup
Issued by NWS

Home | Current Version | Previous Version | Graphics & Text | Print | Product List | Glossary On
Versions: 1 2 3 4 5 6 7 8 9 10 11 12 13 14 15 16 17 18 19 20 21 22 23 24 25 26 27 28 29 30 31 32 33 34 35 36 37 38 39 40 41 42 43 44 45 46 47 48 49 50
000
ASUS43 KFSD 012310
RWRSD

WEATHER ROUNDUP FOR SOUTH DAKOTA
NATIONAL WEATHER SERVICE SIOUX FALLS SD
600 PM CDT SUN MAY 01 2016

NOTE: "FAIR" INDICATES FEW OR NO CLOUDS BELOW 12,000 FEET WITH NO
SIGNIFICANT WEATHER AND/OR OBSTRUCTIONS TO VISIBILITY.


SDZ001>005-009-010-012>017-020000-
NORTHWEST AND NORTH CENTRAL SOUTH DAKOTA

CITY           SKY/WX    TMP DP  RH WIND       PRES   REMARKS
BUFFALO          N/A     61  28  28 VRB7      30.16F
FAITH            N/A     60  27  28 NE9       30.20F
MOBRIDGE       SUNNY     64  31  28 W8        30.17F
$$

SDZ012>016-024>037-041>051-057-063-072>074-020000-
SOUTHWEST AND SOUTH CENTRAL SOUTH DAKOTA

CITY           SKY/WX    TMP DP  RH WIND       PRES   REMARKS
RAPID CTY ARPT SUNNY     58  30  34 N14       30.22F
PIERRE         SUNNY     60  35  39 W14       30.19F
CUSTER         SUNNY     53  21  28 NE10      30.22F
ELLSWORTH AFB  SUNNY     57  28  32 N6        30.22F
PHILIP         SUNNY     61  31  32 VRB7      30.20F
PINE RIDGE     SUNNY     57  29  34 N15       30.20F
WINNER         FAIR      59  32  36 N16       30.19F
$$

SDZ004>011-016>023-039-040-020000-
NORTHEAST SOUTH DAKOTA

CITY           SKY/WX    TMP DP  RH WIND       PRES   REMARKS
ABERDEEN       SUNNY     63  32  31 N10       30.18F
WATERTOWN      SUNNY     60  32  34 NE9       30.15F
BROOKINGS      SUNNY     58  31  35 NE13G20   30.14F
SISSETON         N/A     64  29  26 N13G20    30.15S
$$

SDZ017-020-022-023-036>040-048>070-020000-
SOUTHEAST SOUTH DAKOTA

CITY           SKY/WX    TMP DP  RH WIND       PRES   REMARKS
SIOUX FALLS    MOSUNNY   58  36  43 N10       30.14F
HURON          SUNNY     61  32  33 NE8       30.17F
CHAMBERLAIN    SUNNY     60  36  40 NE9       30.18F
MITCHELL       SUNNY     59  36  42 N13       30.17F
YANKTON        MOSUNNY   55  37  50 N7        30.15S
$$

ABBREVIATIONS USED IN REMARKS
   TC - TEMPERATURE IN CELSIUS
  WCI - WIND CHILL INDEX
   HX - HEAT INDEX
  VSB - VISIBILITY




USA.gov is the U.S. government's official web portal to all federal, state and local government web resources and services.